DW1774 Weather Reports


Display with metric or nautical units.
time (UTC)temp
F
wind
direction
speed
MPH
gust
MPH
rain 1hr
in
rain 24hr
in
rain mn
in
humidity
%
barometer
mb
20260503193904 84 88 2.0 9.0 0.00 0.00 0.00 33 1020.9
20260503192904 83 61 2.0 9.0 0.00 0.00 0.00 33 1021.2
20260503192404 83 106 3.0 8.0 0.00 0.00 0.00 34 1021.3
20260503191904 83 154 3.0 9.0 0.00 0.00 0.00 31 1021.3
20260503191404 83 113 3.0 9.0 0.00 0.00 0.00 35 1021.3
20260503190904 83 129 3.0 9.0 0.00 0.00 0.00 31 1021.4
20260503190405 83 144 3.0 8.0 0.00 0.00 0.00 31 1021.5
20260503185904 83 117 1.0 9.0 0.00 0.00 0.00 33 1021.6
20260503184905 83 97 5.0 10.0 0.00 0.00 0.00 32 1021.7
20260503184403 83 168 1.0 9.0 0.00 0.00 0.00 30 1021.6
20260503183904 83 84 4.0 9.0 0.00 0.00 0.00 30 1021.8
20260503183404 83 144 3.0 10.0 0.00 0.00 0.00 30 1021.8
20260503182403 83 158 4.0 9.0 0.00 0.00 0.00 29 1021.9
20260503181905 83 148 4.0 9.0 0.00 0.00 0.00 33 1022.0
20260503181404 83 168 2.0 7.0 0.00 0.00 0.00 31 1022.0
20260503180903 83 75 1.0 7.0 0.00 0.00 0.00 32 1022.1
20260503180403 83 131 2.0 7.0 0.00 0.00 0.00 32 1022.2
20260503175904 83 46 1.0 8.0 0.00 0.00 0.00 34 1022.3
20260503175404 82 100 3.0 8.0 0.00 0.00 0.00 31 1022.4
20260503174904 82 156 3.0 10.0 0.00 0.00 0.00 34 1022.4
20260503174405 82 115 3.0 10.0 0.00 0.00 0.00 30 1022.6
20260503173904 81 173 5.0 12.0 0.00 0.00 0.00 32 1022.7
20260503173403 81 166 5.0 12.0 0.00 0.00 0.00 32 1022.7
20260503172905 82 147 2.0 10.0 0.00 0.00 0.00 30 1022.8
20260503171904 82 164 6.0 10.0 0.00 0.00 0.00 33 1022.9
20260503170905 82 121 2.0 12.0 0.00 0.00 0.00 33 1022.9
20260503170404 82 135 5.0 12.0 0.00 0.00 0.00 33 1022.9
20260503150405 78 140 3.0 8.0 0.00 0.00 0.00 39 1022.7
20260503131405 60 239 0.0 0.0 0.00 0.00 0.00 90 1022.1
20260503130904 59 226 0.0 1.0 0.00 0.00 0.00 90 1022.1
20260503110404 54 23 0.0 0.0 0.00 0.01 0.00 85 1021.2
20260503090403 56 23 0.0 0.0 0.00 0.13 0.00 83 1020.6
20260503080404 56 23 0.0 0.0 0.00 0.50 0.00 82 1020.7
20260503072904 57 23 0.0 0.0 0.00 0.88 0.00 80 1020.6
20260503071904 57 23 0.0 0.0 0.00 0.94 0.00 80 1020.6
20260503071404 57 23 0.0 0.0 0.00 1.02 0.00 79 1020.7
20260503070904 58 23 0.0 0.0 0.00 1.17 0.00 79 1020.6
20260503070405 58 23 0.0 0.0 0.00 1.32 0.00 79 1020.6
20260503054905 59 23 0.0 0.0 0.00 1.55 0.00 75 1020.7
20260503054404 60 23 0.0 0.0 0.00 1.55 0.00 75 1020.7
20260503053904 60 23 0.0 0.0 0.00 1.55 0.00 74 1020.6
20260503052904 60 23 0.0 1.0 0.00 1.55 0.00 74 1020.6
20260503052405 60 23 0.0 1.0 0.00 1.55 0.00 74 1020.5
20260503051903 60 23 0.0 1.0 0.00 1.55 0.00 74 1020.5
20260503051404 60 23 0.0 0.0 0.00 1.55 0.00 74 1020.5
20260503050404 60 23 0.0 0.0 0.00 1.55 0.00 74 1020.5
20260503045905 60 23 0.0 0.0 0.00 1.55 0.00 73 1020.5
20260503045403 61 23 0.0 0.0 0.00 1.55 0.00 73 1020.4
20260503044903 61 23 0.0 0.0 0.00 1.55 0.00 73 1020.3
20260503043404 61 23 0.0 0.0 0.00 1.56 0.00 73 1020.2
20260503042904 61 23 0.0 0.0 0.00 1.60 0.00 72 1020.4
20260503041904 61 23 0.0 2.0 0.00 1.86 0.00 71 1020.4
20260503041404 62 23 0.0 0.0 0.00 2.08 0.00 71 1020.4
20260503040903 62 23 0.0 0.0 0.00 2.25 0.00 70 1020.3
20260503040403 62 23 0.0 0.0 0.00 2.25 0.00 70 1020.3
20260503035905 62 23 0.0 0.0 0.00 2.26 0.00 69 1020.2
20260503035405 62 23 0.0 0.0 0.00 2.26 0.00 69 1020.2
20260503034905 62 23 0.0 0.0 0.00 2.26 0.00 68 1020.1
20260503034404 62 23 0.0 0.0 0.00 2.26 0.00 68 1020.0
20260503033905 63 23 0.0 3.0 0.00 2.26 0.00 68 1020.0
20260503033404 63 23 0.0 3.0 0.00 2.26 0.00 68 1019.9
20260503032403 63 29 0.0 0.0 0.00 2.32 0.00 68 1019.8
20260503031404 64 29 0.0 0.0 0.00 2.34 0.00 67 1019.8
20260503030905 64 29 0.0 0.0 0.00 2.34 0.00 66 1019.8
20260503030404 64 29 0.0 0.0 0.00 2.34 0.00 65 1019.9
20260503025404 65 29 0.0 0.0 0.00 2.34 0.00 64 1019.7
20260503024905 65 29 0.0 0.0 0.00 2.34 0.00 63 1019.8
20260503024404 65 29 0.0 1.0 0.00 2.34 0.00 63 1019.8
20260503023904 65 29 0.0 1.0 0.00 2.34 0.00 62 1019.7
20260503023405 66 29 0.0 0.0 0.00 2.34 0.00 61 1019.6
20260503022404 67 29 0.0 0.0 0.00 2.34 0.00 59 1019.4
20260503021904 67 29 0.0 0.0 0.00 2.35 0.00 58 1019.5
20260503021405 67 29 0.0 0.0 0.00 2.35 0.00 56 1019.5
20260503020905 67 29 0.0 1.0 0.00 2.35 0.00 56 1019.5
20260503020404 67 29 0.0 2.0 0.00 2.35 0.00 55 1019.5
20260503015904 68 29 0.0 2.0 0.00 2.36 0.00 55 1019.3
20260503015405 68 29 0.0 0.0 0.00 2.37 0.00 54 1019.3
20260503014905 68 29 0.0 0.0 0.00 2.37 0.00 53 1019.2
20260503014404 69 29 0.0 2.0 0.00 2.38 0.00 52 1019.1
20260503013904 69 29 0.0 2.0 0.00 2.38 0.00 51 1019.0
20260503013404 69 29 1.0 2.0 0.00 2.38 0.00 51 1018.9
20260503012904 69 27 1.0 3.0 0.00 2.38 0.00 50 1018.9
20260503012404 69 27 0.0 3.0 0.00 2.38 0.00 50 1019.0
20260503011904 70 24 0.0 2.0 0.00 2.38 0.00 50 1018.9
20260503011404 70 23 0.0 0.0 0.00 2.38 0.00 49 1018.8
20260503010904 70 23 0.0 2.0 0.00 2.38 0.00 49 1018.8
20260503010404 71 23 1.0 2.0 0.00 2.38 0.00 48 1018.7
20260503005904 71 23 1.0 2.0 0.00 2.38 0.00 48 1018.6
20260503005403 71 23 1.0 3.0 0.00 2.38 0.00 48 1018.5
20260503004404 72 23 1.0 3.0 0.00 2.38 0.00 46 1018.4
20260503003904 72 23 2.0 3.0 0.00 2.38 0.00 46 1018.3
20260503003404 72 358 2.0 5.0 0.00 2.38 0.00 45 1018.3
20260503002404 73 17 2.0 5.0 0.00 2.38 0.00 44 1018.3
20260503001904 73 13 3.0 7.0 0.00 2.39 0.00 43 1018.2
20260503001403 74 356 2.0 7.0 0.00 2.39 0.00 42 1018.2
20260503000404 74 57 3.0 9.0 0.00 2.40 0.00 42 1018.1
20260502235904 75 17 2.0 5.0 0.00 2.41 0.00 41 1018.0
20260502235404 75 6 2.0 8.0 0.00 2.42 0.00 41 1018.0
20260502234904 76 46 4.0 9.0 0.00 2.43 0.00 40 1018.0
20260502234404 76 15 3.0 12.0 0.00 2.43 0.00 39 1017.9
20260502233404 77 5 6.0 12.0 0.00 2.43 0.00 36 1017.9
20260502232903 78 353 3.0 10.0 0.00 2.43 0.00 38 1017.9
20260502232404 78 53 5.0 10.0 0.00 2.43 0.00 38 1017.9
20260502231905 79 20 5.0 10.0 0.00 2.43 0.00 38 1017.9
20260502231404 79 22 6.0 10.0 0.00 2.43 0.00 36 1017.9
20260502230905 79 65 2.0 12.0 0.00 2.43 0.00 36 1017.9
20260502230404 79 16 6.0 12.0 0.00 2.43 0.00 36 1017.8
20260502225904 79 29 6.0 12.0 0.00 2.43 0.00 35 1017.8
20260502225404 80 3 7.0 12.0 0.00 2.43 0.00 36 1017.8
20260502224904 80 24 2.0 10.0 0.00 2.43 0.00 35 1017.6
20260502224404 80 12 3.0 12.0 0.00 2.43 0.00 37 1017.6
20260502223905 80 3 5.0 12.0 0.00 2.43 0.00 34 1017.7
20260502223404 80 27 7.0 12.0 0.00 2.43 0.00 34 1017.7
20260502222904 81 10 3.0 12.0 0.00 2.43 0.00 35 1017.7
20260502222403 81 27 4.0 10.0 0.00 2.43 0.00 35 1017.8
20260502221904 81 40 5.0 12.0 0.00 2.43 0.00 35 1017.7
20260502221404 81 25 5.0 12.0 0.00 2.43 0.00 35 1017.8
20260502220404 81 35 4.0 13.0 0.00 2.43 0.00 36 1017.8
20260502215905 80 3 6.0 13.0 0.00 2.43 0.00 37 1017.8
20260502214904 80 14 8.0 16.0 0.00 2.43 0.00 37 1018.0
20260502214404 81 356 6.0 12.0 0.00 2.43 0.00 35 1017.9
20260502213404 81 21 6.0 14.0 0.00 2.43 0.00 36 1017.9
20260502212905 81 7 5.0 10.0 0.00 2.43 0.00 36 1017.9
20260502212404 80 7 5.0 10.0 0.00 2.43 0.00 35 1018.0
20260502211903 80 70 2.0 10.0 0.00 2.43 0.00 33 1018.0
20260502205905 79 36 6.0 15.0 0.00 2.43 0.00 38 1018.0
20260502205404 79 6 5.0 16.0 0.00 2.43 0.00 35 1018.1
20260502204905 79 1 6.0 17.0 0.00 2.43 0.00 36 1018.0
20260502204404 80 25 6.0 17.0 0.00 2.43 0.00 36 1018.0
20260502203904 80 0 5.0 14.0 0.00 2.43 0.00 36 1018.0
20260502203405 80 41 4.0 12.0 0.00 2.43 0.00 39 1018.1
20260502202903 79 20 7.0 16.0 0.00 2.43 0.00 35 1018.3
20260502202403 80 8 8.0 16.0 0.00 2.43 0.00 37 1018.6
20260502201904 80 25 4.0 12.0 0.00 2.43 0.00 38 1018.6
20260502201403 79 31 6.0 13.0 0.00 2.43 0.00 38 1018.6
20260502200904 79 7 7.0 15.0 0.00 2.43 0.00 39 1018.5
20260502200404 78 342 5.0 16.0 0.00 2.43 0.00 38 1018.4
20260502195904 78 20 9.0 16.0 0.00 2.43 0.00 37 1018.5
20260502195404 78 359 8.0 15.0 0.00 2.43 0.00 38 1018.6
20260502194904 79 14 7.0 15.0 0.00 2.43 0.00 39 1018.8